Погода в Нинове

Бельгия     50°50′05″N   4°01′23″E
темп.,
°C
ветер,
м/с
пор.,
м/с
влажн.,
%
обл.,
%
осадки,
мм/ч
давл.,
гПа
погр.,
м
22 октября, пт
пт2223:00+6зюз378343 0.0 1017124
02:00+5юз49847 0.0 1018169
05:00+5юз612805 0.0 1017258
08:00+5юз513854 0.0 1018305
11:00+10зюз714745 0.0 10191194
14:00+11з71162100 0.0 10201588
17:00+12з61065100 0.1 10201054
20:00+10з4979100 0.2 1022350
23 октября, сб
сб2323:00+9з358597 0.1 1024134
02:00+9з118799 0.1 102515
05:00+8ююз229098 0.0 102524
08:00+7ююз239121 0.0 102637
11:00+10ююз347926 0.0 1027240
14:00+14юз34609 0.0 1027997
17:00+14юз246091 0.0 1026282
20:00+11ю35677 0.0 102792
24 октября, вс
вс2423:00+7ю35785 0.0 102764
02:00+6ююв368124 0.0 1026101
05:00+6ююв34885 0.0 102559
08:00+5ююв36875 0.0 102486
11:00+9ю48670 0.0 1024311
14:00+14ююз46565 0.0 1022721
17:00+13ю4763100 0.0 1021620
20:00+8ю368299 0.0 102195
25 октября, пн
пн2523:00+6ю488529 0.0 1021118
02:00+5ю478393 0.0 1020115
05:00+5ю4108349 0.0 1019161
08:00+5ю41178100 0.0 1019220
11:00+8ююз61273100 0.1 1019360
14:00+11ююз688149 0.1 1019395
17:00+13ююз58835 0.0 1019475
20:00+10ююз4893100 0.1 1020140
26 октября, вт
вт2623:00+9юз479479 0.1 1021134
02:00+8юз469541 0.1 1022110
05:00+8ююз49967 0.0 1021159
08:00+7ююз4896100 0.0 1022154
11:00+11юз5888100 0.0 1023304
14:00+11ююз51087100 0.1 1023405
17:00+11ююз51183100 0.0 1022403
20:00+11ююз5108398 0.1 1023308